Orbital Elements at Epoch 2459200.5 (2020-Dec-17.0) TDB
Reference: JPL 17 (heliocentric ecliptic J2000)
Element | Value | Uncertainty (1-sigma) | Units |
e | .1952701053576262 | 4.7156e-08 | |
a | 3.118026643061955 | 2.4828e-08 | au |
q | 2.509169251963362 | 1.52e-07 | au |
i | 6.54187367713666 | 5.1694e-06 | deg |
node | 85.09131440046603 | 4.1425e-05 | deg |
peri | 296.0091018852884 | 4.3359e-05 | deg |
M | 266.6008806722431 | 1.6566e-05 | deg |
tp | 2459722.245173346356 (2022-May-22.74517335) | 9.6959e-05 | TDB |
period | 2011.028195518201 5.51 | 2.402e-05 6.576e-08 | d yr |
n | .1790129053398156 | 2.1382e-09 | deg/d |
Q | 3.726884034160549 | 2.9677e-08 | au |
|
| | Orbit Determination Parameters
Additional Information
|